Simultaneous Nadir Overpasses (SNOs) Predictions

Prediction of SNOs between AQUA and GOES-15 Satellite Orbit:

Table of predicted SNOs for the next 14.0 days since TLE Epoch: 12/10/2022
Index Date Time (AQUA) AQUA Lat,Lon GOES-15 Lat,Lon Distance(km) Time Diff (sec)
1 12/10/2022 22:16:03 -0.19,-128.30 -0.02,-127.59 80.75 80
2 12/12/2022 22:03:06 0.50,-125.15 -0.02,-127.51 269.49 80
3 12/13/2022 10:24:09 0.61,-130.24 0.00,-127.56 306.02 80
4 12/15/2022 10:11:11 -0.05,-127.08 0.00,-127.48 44.20 80
5 12/17/2022 09:58:13 -0.74,-123.93 0.00,-127.39 394.08 80
6 12/17/2022 22:19:25 -0.36,-129.06 0.01,-127.30 200.29 80
7 12/19/2022 22:06:26 0.30,-125.90 0.00,-127.21 149.26 80
8 12/20/2022 10:27:28 0.80,-131.00 -0.01,-127.25 426.35 80
9 12/21/2022 21:53:26 0.92,-122.72 -0.01,-127.10 498.07 80
10 12/22/2022 10:14:30 0.12,-127.84 -0.00,-127.15 77.82 80
